Fort Myers, FL

4:28 AM EDT on March 29, 2017 (GMT -0400)
Page

Weather History for KFMY - January, 2015

Change the Weather History Date:

Monday, January 26, 2015

  Actual Average Record
Temperature  
Mean Temperature 63 °F 64 °F  
Max Temperature 72 °F 75 °F 86 °F (1974)
Min Temperature 54 °F 54 °F 27 °F (1905)
Degree Days  
Heating Degree Days 2 3  
Month to date heating degree days 31 97  
Since 1 July heating degree days 120 190  
Cooling Degree Days 0 3  
Month to date cooling degree days 100 77  
Year to date cooling degree days 100 77  
Growing Degree Days 12 (Base 50)    
Moisture  
Dew Point 53 °F    
Average Humidity 71    
Maximum Humidity 100    
Minimum Humidity 44    
Precipitation  
Precipitation 0.07 in 0.06 in 0.82 in (1924)
Month to date precipitation 0.57 1.61  
Year to date precipitation 0.57 1.61  
Sea Level Pressure  
Sea Level Pressure 29.94 in    
Wind  
Wind Speed 13 mph (WNW)    
Max Wind Speed 28 mph    
Max Gust Speed 37 mph    
Visibility 9 miles    
Events Rain    
T = Trace of Precipitation, MM = Missing Value Source: NWS Daily Summary

Daily Weather History Graph

Daily Weather History Graph

Search for Another Location

Airport or City:

Trip Planner

Search our weather history database for the weather conditions in past years. The results will help you decide how hot, cold, wet, or windy it might be!

Date:

Astronomy

Jan. 26, 2015 Rise Set
Actual Time 7:14 AM EST 6:05 PM EST
Civil Twilight 6:50 AM EST 6:29 PM EST
Nautical Twilight 6:22 AM EST 6:57 PM EST
Astronomical Twilight 5:54 AM EST 7:25 PM EST
Moon 11:38 AM EST (1/26) No Moon Set
Length of Visible Light 11h 39m
Length of Day
10h 50m
Waxing Crescent, 45% of the Moon is Illuminated
Jan 26
Waxing Crescent
Jan 26
First Quarter
Feb 3
Full
Feb 11
Last Quarter
Feb 18
New

Hourly Weather History & Observations

Time (EST) Temp. Dew Point Humidity Pressure Visibility Wind Dir Wind Speed Gust Speed Precip Events Conditions
12:53 AM 55.0 °F 54.0 °F 96% 29.96 in 10.0 mi SSE 5.8 mph - N/A   Clear
1:53 AM 54.0 °F 53.1 °F 97% 29.94 in 10.0 mi Calm Calm - N/A   Clear
2:53 AM 54.0 °F 51.1 °F 90% 29.94 in 10.0 mi Calm Calm - N/A   Clear
3:53 AM 62.1 °F 54.0 °F 75% 29.93 in 10.0 mi SW 4.6 mph - N/A   Overcast
4:53 AM 64.0 °F 55.9 °F 75% 29.90 in 10.0 mi SW 8.1 mph - N/A   Scattered Clouds
5:53 AM 64.9 °F 57.0 °F 75% 29.89 in 10.0 mi SW 8.1 mph - N/A   Clear
6:53 AM 66.0 °F 60.1 °F 81% 29.90 in 6.0 mi West 19.6 mph 28.8 mph 0.01 in Rain Light Rain
7:05 AM 64.9 °F 60.1 °F 84% 29.89 in 10.0 mi West 13.8 mph - 0.00 in   Overcast
7:53 AM 66.9 °F 61.0 °F 81% 29.93 in 2.5 mi WNW 27.6 mph 35.7 mph 0.00 in Rain Light Rain
8:00 AM 62.1 °F 59.0 °F 90% 29.93 in 7.0 mi NW 17.3 mph 35.7 mph 0.05 in Rain Light Rain
8:53 AM 62.1 °F 61.0 °F 96% 29.95 in 9.0 mi WNW 9.2 mph - 0.06 in   Mostly Cloudy
9:53 AM 66.9 °F 62.1 °F 84% 29.96 in 10.0 mi WNW 8.1 mph - N/A   Mostly Cloudy
10:53 AM 68.0 °F 55.0 °F 63% 29.96 in 10.0 mi WNW 17.3 mph 24.2 mph N/A   Mostly Cloudy
11:53 AM 70.0 °F 51.1 °F 51% 29.94 in 10.0 mi WNW 17.3 mph 27.6 mph N/A   Partly Cloudy
12:53 PM 71.1 °F 48.9 °F 45% 29.91 in 10.0 mi West 20.7 mph 34.5 mph N/A   Scattered Clouds
1:53 PM 71.1 °F 51.1 °F 49% 29.90 in 10.0 mi NW 20.7 mph 27.6 mph N/A   Mostly Cloudy
2:53 PM 68.0 °F 51.1 °F 55% 29.90 in 10.0 mi NW 21.9 mph 31.1 mph N/A   Scattered Clouds
3:53 PM 66.9 °F 48.0 °F 51% 29.91 in 10.0 mi WNW 20.7 mph 32.2 mph N/A   Partly Cloudy
4:53 PM 66.0 °F 48.0 °F 52% 29.92 in 10.0 mi NW 19.6 mph 28.8 mph N/A   Partly Cloudy
5:53 PM 64.0 °F 50.0 °F 60% 29.93 in 10.0 mi NW 19.6 mph 26.5 mph N/A   Partly Cloudy
6:53 PM 63.0 °F 48.9 °F 60% 29.94 in 10.0 mi WNW 13.8 mph 24.2 mph N/A   Clear
7:53 PM 62.1 °F 51.1 °F 67% 29.96 in 10.0 mi NW 12.7 mph 19.6 mph N/A   Mostly Cloudy
8:53 PM 61.0 °F 50.0 °F 67% 29.97 in 10.0 mi NW 13.8 mph - N/A   Mostly Cloudy
9:53 PM 61.0 °F 48.0 °F 62% 29.98 in 10.0 mi WNW 10.4 mph - N/A   Mostly Cloudy
10:53 PM 60.1 °F 50.0 °F 69% 30.00 in 10.0 mi NW 11.5 mph - N/A   Mostly Cloudy
11:53 PM 59.0 °F 50.0 °F 72% 29.99 in 10.0 mi NW 8.1 mph - N/A   Partly Cloudy